When you browse on this site, cookies collect data to enhance your experience and personalize the content and advertising you see.
Visit our Privacy Policy to learn more. By continuing to use the site, you agree to this use of cookies and data.
  • In United Kingdom
  • List of Countries
  • For 7 days
  • Water Temperature
  • Satellite Maps
  • Weather Map
  • Weather Widgets
  • user-avatar
    Login

    Hourly Weather Maubeuge

    Today, 15 December, Saturday

    Time Temperature Precipitation Wind Pressure Humidity
    00:00 -1°C° 0 mm 1 mps 755 mmHg 72%
    01:00 -2°C° 0 mm 1 mps 755 mmHg 72%
    02:00 -4°C° 0 mm 2 mps 755 mmHg 72%
    03:00 -4°C° 0 mm 2 mps 755 mmHg 72%
    04:00 -4°C° 0 mm 2 mps 754 mmHg 73%
    05:00 -4°C° 0 mm 2 mps 754 mmHg 73%
    06:00 -5°C° 0 mm 3 mps 754 mmHg 74%
    07:00 -5°C° 0 mm 3 mps 753 mmHg 72%
    08:00 -4°C° 0 mm 4 mps 753 mmHg 71%
    09:00 -4°C° 0 mm 4 mps 753 mmHg 69%
    10:00 -4°C° 0 mm 5 mps 753 mmHg 65%
    11:00 -2°C° 0 mm 5 mps 752 mmHg 61%
    12:00 -1°C° 0 mm 5 mps 752 mmHg 57%
    13:00 -2°C° 0 mm 6 mps 751 mmHg 59%
    14:00 -2°C° 0 mm 6 mps 750 mmHg 60%
    15:00 -2°C° 0 mm 6 mps 749 mmHg 61%
    16:00 -2°C° 0.4 mm 7 mps 748 mmHg 65%
    17:00 -2°C° 0.4 mm 8 mps 748 mmHg 69%
    18:00 -4°C° 0.4 mm 9 mps 747 mmHg 73%
    19:00 -3°C° 1.5 mm 9 mps 746 mmHg 78%
    20:00 -3°C° 1.5 mm 9 mps 745 mmHg 83%
    21:00 -3°C° 1.5 mm 10 mps 744 mmHg 87%
    22:00 -3°C° 1.2 mm 9 mps 744 mmHg 88%
    23:00 -1°C° 1.2 mm 8 mps 744 mmHg 89%

    Tomorrow, 16 December, Sunday

    Time Temperature Precipitation Wind Pressure Humidity
    00:00 -1°C° 1.2 mm 7 mps 743 mmHg 90%
    01:00 -1°C° 0.1 mm 6 mps 743 mmHg 92%
    02:00 0°C° 0.1 mm 5 mps 743 mmHg 93%
    03:00 0°C° 0.1 mm 5 mps 743 mmHg 95%
    04:00 0°C° 0 mm 4 mps 743 mmHg 95%
    05:00 0°C° 0 mm 4 mps 743 mmHg 96%
    06:00 0°C° 0 mm 4 mps 744 mmHg 96%
    07:00 +1°C° 0.1 mm 3 mps 744 mmHg 96%
    08:00 +1°C° 0.1 mm 3 mps 744 mmHg 96%
    09:00 +2°C° 0.1 mm 3 mps 745 mmHg 96%
    10:00 +2°C° 0.4 mm 3 mps 745 mmHg 96%
    11:00 +1°C° 0.4 mm 4 mps 745 mmHg 95%
    12:00 +3°C° 0.4 mm 4 mps 745 mmHg 95%
    13:00 +3°C° 0 mm 4 mps 745 mmHg 96%
    14:00 +3°C° 0 mm 3 mps 745 mmHg 96%
    15:00 +3°C° 0 mm 3 mps 745 mmHg 96%
    16:00 +2°C° 0 mm 3 mps 745 mmHg 96%
    17:00 +2°C° 0 mm 3 mps 746 mmHg 96%
    18:00 +2°C° 0 mm 3 mps 746 mmHg 96%
    19:00 +2°C° 0 mm 3 mps 746 mmHg 96%
    20:00 +2°C° 0 mm 3 mps 746 mmHg 96%
    21:00 +2°C° 0 mm 3 mps 746 mmHg 96%
    22:00 +2°C° 0.1 mm 3 mps 746 mmHg 96%
    23:00 +1°C° 0.1 mm 4 mps 746 mmHg 96%

    Day after tomorrow, 17 December, Monday

    Time Temperature Precipitation Wind Pressure Humidity
    00:00 +1°C° 0.1 mm 4 mps 745 mmHg 96%
    01:00 +1°C° 0.2 mm 4 mps 745 mmHg 95%
    02:00 +1°C° 0.2 mm 4 mps 745 mmHg 95%
    03:00 +1°C° 0.2 mm 5 mps 745 mmHg 94%
    04:00 +1°C° 0.7 mm 4 mps 745 mmHg 94%
    05:00 +1°C° 0.7 mm 4 mps 746 mmHg 94%
    06:00 +2°C° 0.7 mm 3 mps 746 mmHg 94%
    07:00 +3°C° 0.3 mm 3 mps 747 mmHg 95%
    08:00 +3°C° 0.3 mm 3 mps 748 mmHg 95%
    09:00 +3°C° 0.3 mm 3 mps 749 mmHg 96%
    10:00 +4°C° 0.1 mm 3 mps 749 mmHg 93%
    11:00 +4°C° 0.1 mm 4 mps 750 mmHg 91%
    12:00 +5°C° 0.1 mm 4 mps 751 mmHg 89%
    13:00 +5°C° 0 mm 3 mps 751 mmHg 89%
    14:00 +5°C° 0 mm 3 mps 752 mmHg 90%
    15:00 +5°C° 0 mm 3 mps 752 mmHg 90%
    16:00 +5°C° 0 mm 2 mps 753 mmHg 91%
    17:00 +4°C° 0 mm 2 mps 753 mmHg 92%
    18:00 +4°C° 0 mm 2 mps 754 mmHg 93%
    19:00 +3°C° 0 mm 2 mps 754 mmHg 93%
    20:00 +2°C° 0 mm 3 mps 755 mmHg 94%
    21:00 +2°C° 0 mm 3 mps 755 mmHg 95%
    22:00 +2°C° 0 mm 3 mps 755 mmHg 95%
    23:00 +2°C° 0 mm 3 mps 755 mmHg 95%

    18 December, Tuesday

    Time Temperature Precipitation Wind Pressure Humidity
    00:00 +2°C° 0 mm 3 mps 755 mmHg 95%
    01:00 +2°C° 0 mm 3 mps 755 mmHg 95%
    02:00 +1°C° 0 mm 4 mps 755 mmHg 94%
    03:00 +1°C° 0 mm 4 mps 755 mmHg 94%
    04:00 +1°C° 0 mm 4 mps 754 mmHg 94%
    05:00 +1°C° 0 mm 5 mps 754 mmHg 94%
    06:00 +1°C° 0 mm 5 mps 754 mmHg 94%
    07:00 +1°C° 0 mm 5 mps 754 mmHg 93%
    08:00 +1°C° 0 mm 5 mps 754 mmHg 93%
    09:00 +1°C° 0 mm 5 mps 753 mmHg 92%
    10:00 +2°C° 0 mm 6 mps 753 mmHg 87%
    11:00 +3°C° 0 mm 6 mps 752 mmHg 82%
    12:00 +4°C° 0 mm 7 mps 751 mmHg 76%
    13:00 +4°C° 0 mm 7 mps 750 mmHg 75%
    14:00 +4°C° 0 mm 7 mps 749 mmHg 74%
    15:00 +3°C° 0 mm 7 mps 748 mmHg 74%
    16:00 +3°C° 0 mm 7 mps 748 mmHg 73%
    17:00 +3°C° 0 mm 7 mps 747 mmHg 72%
    18:00 +3°C° 0 mm 7 mps 747 mmHg 72%
    19:00 +3°C° 0 mm 7 mps 747 mmHg 73%
    20:00 +3°C° 0 mm 7 mps 746 mmHg 73%
    21:00 +2°C° 0 mm 7 mps 746 mmHg 74%
    22:00 +3°C° 0.1 mm 7 mps 746 mmHg 76%
    23:00 +3°C° 0.1 mm 7 mps 745 mmHg 78%

    19 December, Wednesday

    Time Temperature Precipitation Wind Pressure Humidity
    00:00 +4°C° 0.1 mm 7 mps 745 mmHg 80%
    01:00 +4°C° 0.4 mm 6 mps 745 mmHg 84%
    02:00 +4°C° 0.4 mm 6 mps 745 mmHg 87%
    03:00 +5°C° 0.4 mm 6 mps 746 mmHg 91%
    04:00 +5°C° 0 mm 6 mps 746 mmHg 92%
    05:00 +5°C° 0 mm 5 mps 746 mmHg 93%
    06:00 +5°C° 0 mm 5 mps 746 mmHg 94%
    07:00 +5°C° 0 mm 4 mps 747 mmHg 94%
    08:00 +5°C° 0 mm 4 mps 747 mmHg 94%
    09:00 +5°C° 0 mm 4 mps 748 mmHg 94%
    10:00 +5°C° 0 mm 4 mps 748 mmHg 92%
    11:00 +6°C° 0 mm 4 mps 748 mmHg 89%
    12:00 +7°C° 0 mm 4 mps 747 mmHg 86%
    13:00 +6°C° 0 mm 4 mps 748 mmHg 87%
    14:00 +6°C° 0 mm 4 mps 748 mmHg 88%
    15:00 +6°C° 0 mm 4 mps 748 mmHg 88%
    16:00 +6°C° 0 mm 4 mps 748 mmHg 89%
    17:00 +7°C° 0 mm 3 mps 748 mmHg 89%
    18:00 +5°C° 0 mm 3 mps 748 mmHg 89%
    19:00 +5°C° 0 mm 3 mps 749 mmHg 90%
    20:00 +5°C° 0 mm 3 mps 749 mmHg 90%
    21:00 +4°C° 0 mm 3 mps 749 mmHg 90%
    22:00 +4°C° 0 mm 3 mps 749 mmHg 91%
    23:00 +3°C° 0 mm 3 mps 749 mmHg 93%

    20 December, Thursday

    Time Temperature Precipitation Wind Pressure Humidity
    00:00 +3°C° 0 mm 3 mps 749 mmHg 94%
    01:00 +3°C° 0 mm 3 mps 749 mmHg 94%
    02:00 +3°C° 0 mm 3 mps 749 mmHg 95%
    03:00 +3°C° 0 mm 3 mps 749 mmHg 95%
    04:00 +1°C° 0 mm 4 mps 749 mmHg 95%
    05:00 +1°C° 0 mm 4 mps 749 mmHg 94%
    06:00 +1°C° 0 mm 4 mps 748 mmHg 94%
    07:00 +1°C° 0 mm 5 mps 748 mmHg 93%
    08:00 +2°C° 0 mm 5 mps 748 mmHg 92%
    09:00 +2°C° 0 mm 5 mps 748 mmHg 90%
    10:00 +2°C° 0.5 mm 6 mps 748 mmHg 90%
    11:00 +3°C° 0.5 mm 6 mps 748 mmHg 89%
    12:00 +3°C° 0.5 mm 6 mps 747 mmHg 88%
    13:00 +3°C° 0.9 mm 6 mps 747 mmHg 89%
    14:00 +3°C° 0.9 mm 5 mps 747 mmHg 89%
    15:00 +5°C° 0.9 mm 5 mps 747 mmHg 89%
    16:00 +4°C° 0.1 mm 4 mps 747 mmHg 90%
    17:00 +4°C° 0.1 mm 4 mps 748 mmHg 92%
    18:00 +3°C° 0.1 mm 3 mps 748 mmHg 93%
    19:00 +3°C° 0 mm 3 mps 749 mmHg 93%
    20:00 +2°C° 0 mm 3 mps 749 mmHg 93%
    21:00 +3°C° 0 mm 2 mps 749 mmHg 93%
    22:00 +3°C° 0 mm 2 mps 750 mmHg 93%
    23:00 +2°C° 0 mm 2 mps 750 mmHg 93%
    Show more